Hourly Weather Sakkhar

Today, 7 July, Tuesday

Time Temperature Precipitation Wind Pressure Humidity
00:00 +39°C° 0 mm 3 mps 742 mmHg 31%
01:00 +40°C° 0 mm 4 mps 742 mmHg 31%
02:00 +40°C° 0 mm 5 mps 742 mmHg 32%
03:00 +38°C° 0 mm 4 mps 742 mmHg 35%
04:00 +37°C° 0 mm 3 mps 742 mmHg 37%
05:00 +33°C° 0 mm 0 mps 741 mmHg 33%
06:00 +37°C° 0 mm 1 mps 742 mmHg 32%
07:00 +39°C° 0 mm 1 mps 742 mmHg 30%
08:00 +40°C° 0 mm 1 mps 743 mmHg 28%
09:00 +42°C° 0 mm 2 mps 743 mmHg 25%
10:00 +45°C° 0 mm 2 mps 743 mmHg 23%
11:00 +46°C° 0 mm 2 mps 743 mmHg 21%
12:00 +47°C° 0 mm 3 mps 742 mmHg 19%
13:00 +49°C° 0 mm 4 mps 742 mmHg 16%
14:00 +50°C° 0 mm 4 mps 741 mmHg 14%
15:00 +50°C° 0 mm 4 mps 741 mmHg 14%
16:00 +50°C° 0 mm 4 mps 740 mmHg 14%
17:00 +48°C° 0 mm 3 mps 740 mmHg 14%
18:00 +47°C° 0 mm 3 mps 741 mmHg 15%
19:00 +46°C° 0 mm 3 mps 741 mmHg 16%
20:00 +45°C° 0 mm 3 mps 741 mmHg 17%
21:00 +42°C° 0 mm 2 mps 742 mmHg 20%
22:00 +41°C° 0 mm 2 mps 742 mmHg 23%
23:00 +40°C° 0 mm 1 mps 742 mmHg 27%

Tomorrow, 8 July, Wednesday

Time Temperature Precipitation Wind Pressure Humidity
00:00 +39°C° 0 mm 1 mps 742 mmHg 27%
01:00 +39°C° 0 mm 1 mps 742 mmHg 28%
02:00 +37°C° 0 mm 1 mps 742 mmHg 29%
03:00 +37°C° 0 mm 1 mps 742 mmHg 30%
04:00 +37°C° 0 mm 2 mps 742 mmHg 32%
05:00 +37°C° 0 mm 2 mps 742 mmHg 33%
06:00 +38°C° 0 mm 2 mps 743 mmHg 32%
07:00 +40°C° 0 mm 3 mps 743 mmHg 32%
08:00 +42°C° 0 mm 4 mps 744 mmHg 31%
09:00 +44°C° 0 mm 3 mps 744 mmHg 28%
10:00 +45°C° 0 mm 3 mps 744 mmHg 25%
11:00 +47°C° 0 mm 3 mps 744 mmHg 21%
12:00 +48°C° 0 mm 4 mps 743 mmHg 20%
13:00 +49°C° 0 mm 5 mps 743 mmHg 18%
14:00 +51°C° 0 mm 6 mps 742 mmHg 17%
15:00 +49°C° 0 mm 6 mps 742 mmHg 17%
16:00 +49°C° 0 mm 6 mps 742 mmHg 18%
17:00 +49°C° 0 mm 6 mps 741 mmHg 19%
18:00 +48°C° 0 mm 5 mps 742 mmHg 21%
19:00 +46°C° 0 mm 5 mps 742 mmHg 24%
20:00 +44°C° 0 mm 4 mps 742 mmHg 27%
21:00 +43°C° 0 mm 5 mps 742 mmHg 31%
22:00 +42°C° 0 mm 5 mps 743 mmHg 36%
23:00 +41°C° 0 mm 5 mps 743 mmHg 40%

Day after tomorrow, 9 July, Thursday

Time Temperature Precipitation Wind Pressure Humidity
00:00 +40°C° 0 mm 5 mps 743 mmHg 43%
01:00 +39°C° 0 mm 6 mps 743 mmHg 46%
02:00 +38°C° 0 mm 6 mps 743 mmHg 49%
03:00 +36°C° 0 mm 5 mps 743 mmHg 52%
04:00 +36°C° 0 mm 5 mps 743 mmHg 55%
05:00 +35°C° 0 mm 5 mps 743 mmHg 57%
06:00 +35°C° 0 mm 5 mps 743 mmHg 55%
07:00 +36°C° 0 mm 5 mps 743 mmHg 53%
08:00 +37°C° 0 mm 5 mps 744 mmHg 51%
09:00 +40°C° 0 mm 5 mps 744 mmHg 46%
10:00 +42°C° 0 mm 4 mps 743 mmHg 40%
11:00 +43°C° 0 mm 4 mps 743 mmHg 34%
12:00 +45°C° 0 mm 4 mps 742 mmHg 31%
13:00 +47°C° 0 mm 4 mps 741 mmHg 28%
14:00 +47°C° 0 mm 3 mps 741 mmHg 24%
15:00 +48°C° 0 mm 3 mps 740 mmHg 23%
16:00 +48°C° 0 mm 3 mps 739 mmHg 22%
17:00 +48°C° 0 mm 3 mps 739 mmHg 21%
18:00 +48°C° 0 mm 5 mps 739 mmHg 23%
19:00 +47°C° 0 mm 6 mps 739 mmHg 25%
20:00 +46°C° 0 mm 7 mps 739 mmHg 27%
21:00 +44°C° 0 mm 8 mps 739 mmHg 31%
22:00 +43°C° 0 mm 9 mps 739 mmHg 35%
23:00 +42°C° 0 mm 10 mps 740 mmHg 39%

10 July, Friday

Time Temperature Precipitation Wind Pressure Humidity
00:00 +40°C° 0 mm 9 mps 740 mmHg 44%
01:00 +39°C° 0 mm 8 mps 739 mmHg 49%
02:00 +38°C° 0 mm 8 mps 739 mmHg 54%
03:00 +38°C° 0 mm 8 mps 739 mmHg 54%
04:00 +36°C° 0 mm 7 mps 739 mmHg 55%
05:00 +36°C° 0 mm 7 mps 739 mmHg 55%
06:00 +38°C° 0 mm 7 mps 739 mmHg 53%
07:00 +39°C° 0 mm 6 mps 739 mmHg 50%
08:00 +40°C° 0 mm 6 mps 739 mmHg 47%
09:00 +42°C° 0 mm 5 mps 739 mmHg 40%
10:00 +46°C° 0 mm 5 mps 739 mmHg 33%
11:00 +48°C° 0 mm 4 mps 739 mmHg 26%
12:00 +49°C° 0 mm 4 mps 738 mmHg 23%
13:00 +51°C° 0 mm 3 mps 738 mmHg 19%
14:00 +52°C° 0 mm 3 mps 737 mmHg 16%
15:00 +52°C° 0 mm 4 mps 736 mmHg 15%
16:00 +53°C° 0 mm 4 mps 735 mmHg 14%
17:00 +54°C° 0 mm 5 mps 735 mmHg 13%
18:00 +51°C° 0 mm 7 mps 735 mmHg 22%
19:00 +48°C° 0 mm 10 mps 735 mmHg 30%
20:00 +44°C° 0 mm 12 mps 736 mmHg 38%
21:00 +43°C° 0 mm 12 mps 736 mmHg 42%
22:00 +41°C° 0 mm 11 mps 737 mmHg 45%
23:00 +39°C° 0 mm 11 mps 737 mmHg 49%

11 July, Saturday

Time Temperature Precipitation Wind Pressure Humidity
00:00 +38°C° 0 mm 10 mps 737 mmHg 50%
01:00 +38°C° 0 mm 9 mps 737 mmHg 52%
02:00 +37°C° 0 mm 8 mps 736 mmHg 54%
03:00 +35°C° 0 mm 8 mps 736 mmHg 56%
04:00 +35°C° 0 mm 7 mps 736 mmHg 58%
05:00 +34°C° 0 mm 7 mps 736 mmHg 60%
06:00 +35°C° 0 mm 6 mps 736 mmHg 56%
07:00 +36°C° 0 mm 6 mps 737 mmHg 53%
08:00 +37°C° 0 mm 5 mps 737 mmHg 49%
09:00 +40°C° 0 mm 4 mps 737 mmHg 41%
10:00 +43°C° 0 mm 4 mps 737 mmHg 32%
11:00 +45°C° 0 mm 3 mps 737 mmHg 24%
12:00 +48°C° 0 mm 4 mps 736 mmHg 19%
13:00 +50°C° 0 mm 4 mps 735 mmHg 15%
14:00 +53°C° 0 mm 5 mps 735 mmHg 11%
15:00 +53°C° 0 mm 4 mps 734 mmHg 11%
16:00 +53°C° 0 mm 4 mps 734 mmHg 11%
17:00 +53°C° 0 mm 4 mps 734 mmHg 10%
18:00 +51°C° 0 mm 7 mps 734 mmHg 17%
19:00 +48°C° 0 mm 9 mps 734 mmHg 24%
20:00 +44°C° 0 mm 11 mps 735 mmHg 31%
21:00 +42°C° 0 mm 11 mps 735 mmHg 38%
22:00 +39°C° 0 mm 10 mps 736 mmHg 45%
23:00 +38°C° 0 mm 10 mps 737 mmHg 52%

12 July, Sunday

Time Temperature Precipitation Wind Pressure Humidity
00:00 +37°C° 0 mm 9 mps 736 mmHg 54%
01:00 +35°C° 0 mm 9 mps 736 mmHg 55%
02:00 +35°C° 0 mm 9 mps 736 mmHg 57%
03:00 +34°C° 0 mm 8 mps 736 mmHg 59%
04:00 +34°C° 0 mm 8 mps 737 mmHg 60%
05:00 +34°C° 0 mm 8 mps 737 mmHg 61%
06:00 +34°C° 0 mm 7 mps 737 mmHg 59%
07:00 +35°C° 0 mm 6 mps 738 mmHg 56%
08:00 +36°C° 0 mm 6 mps 738 mmHg 54%
09:00 +39°C° 0 mm 5 mps 738 mmHg 47%
10:00 +41°C° 0 mm 4 mps 738 mmHg 40%
11:00 +43°C° 0 mm 3 mps 738 mmHg 33%
12:00 +45°C° 0 mm 3 mps 738 mmHg 28%
13:00 +47°C° 0 mm 3 mps 737 mmHg 23%
14:00 +50°C° 0 mm 3 mps 737 mmHg 18%
15:00 +50°C° 0 mm 4 mps 737 mmHg 17%
16:00 +51°C° 0 mm 4 mps 736 mmHg 16%
17:00 +51°C° 0 mm 4 mps 736 mmHg 14%
18:00 +48°C° 0 mm 6 mps 736 mmHg 22%
19:00 +47°C° 0 mm 9 mps 737 mmHg 30%
20:00 +43°C° 0 mm 11 mps 737 mmHg 38%
21:00 +41°C° 0 mm 11 mps 738 mmHg 43%
22:00 +39°C° 0 mm 10 mps 739 mmHg 49%
23:00 +37°C° 0 mm 10 mps 739 mmHg 54%
Show more